Torna al catalogo

FENGYUN 1C DEB

AttivoSSO
NORAD 45527·DEBRIS·🇨🇳 China

Lanciato May 10, 1999 da Taiyuan Satellite Launch Center

Loading…

Prossimi Passaggi (prossime 24 ore)

TLE

AggiornatoSource: Space-Track

Epoca: Sep 14, 2026, 03:45 UTC

1 45527U 99025EYS 26257.15653387  .00001992  00000-0  83771-3 0  9998
2 45527  98.7203 327.4450 0055064 146.5405 213.9274 14.26108359435036

Traccia FENGYUN 1C DEB in tempo reale con AllMySat

Download on the App Store